Weather Roundup
Issued by NWS

Home | Current Version | Previous Version | Graphics & Text | Print | Product List | Glossary Off
Versions: 1 2 3 4 5 6 7 8 9 10 11 12 13 14 15 16 17 18 19 20 21 22 23 24 25 26 27 28 29 30 31 32 33 34 35 36 37 38 39 40 41 42 43 44 45 46 47 48 49 50

000
NZUS93 KARX 201310
HRRWXR

CURRENT HOURLY OBSERVATIONS ACROSS
MUCH OF THE UPPER MISSISSIPPI VALLEY
NATIONAL WEATHER SERVICE LA CROSSE WI
800 AM CDT MON OCT 20 2014


...SOUTHEAST MINNESOTA...


CITY           SKY/WX    TMP DP  RH WIND       PRES   REMARKS
ROCHESTER      CLEAR     42  39  89 W7        29.97R
ROCHESTER/MAYO FAIR      46  39  77 W8        29.96S
WINONA         MOCLDY    43  41  93 NW5       29.94S
AUSTIN         CLEAR     43  39  87 NW5       29.97S
ALBERT LEA     CLEAR     43  39  87 W5        29.98S
DODGE CENTER   CLEAR     45  41  87 W8        29.96S
PRESTON        CLEAR     42  39  89 NW6       29.96R
OWATONNA       CLEAR     37  36  93 CALM      29.98R
FARIBAULT      CLEAR     39  37  93 CALM      29.97S
$$

...ELSEWHERE IN MINNESOTA...


CITY           SKY/WX    TMP DP  RH WIND       PRES   REMARKS
MINNEAPOLIS    CLEAR     47  41  80 NW7       29.97R
INTNL FALLS    CLOUDY    43  40  89 N7        29.96R
DULUTH         PTCLDY    43  39  86 NW6       29.93R
RED WING       CLEAR     43  39  87 W5        29.95R
REDWOOD FALLS  CLEAR     41  37  86 NW9       30.02R
MANKATO        CLEAR     45  36  70 W7        29.99R
WORTHINGTON    CLEAR     41  36  81 W7        30.05R
FAIRMONT       CLEAR     45  36  70 W9        30.01R
$$

...SOUTHWEST WISCONSIN...


CITY           SKY/WX    TMP DP  RH WIND       PRES   REMARKS
LA CROSSE      CLEAR     45  42  89 CALM      29.92R
PRAIRIE DU CHI CLEAR     45  41  85 CALM      29.92R
BOSCOBEL       CLEAR     43  41  93 CALM      29.92R FOG
LONE ROCK      CLEAR     53  42  66 NW8       29.90R
PLATTEVILLE    CLEAR     47  43  85 CALM      29.90R
FORT MC COY    CLEAR     45  40  83 W3        29.91S
CAMP DOUGLAS   CLEAR     41  41 100 W5        29.90R
VIROQUA        FAIR      45  41  86 NW5       29.92R
WIS DELLS      FAIR      47  41  78 NW5       29.88R
$$

...ELSEWHERE IN WISCONSIN...


CITY           SKY/WX    TMP DP  RH WIND       PRES   REMARKS
MILWAUKEE      PTCLDY    49  43  80 NW7       29.79R
MADISON        PTCLDY    50  43  77 NW8       29.85R
GREEN BAY      CLOUDY    48  44  86 NW8       29.82R
EAU CLAIRE     CLEAR     43  39  86 W6        29.92R
BLACK RVR FLS  FAIR      35  35 100 CALM      29.91R
MEDFORD        CLOUDY    41  40  95 NW3       29.87S
WAUSAU         MOCLDY    43  41  93 NW6       29.86R
WIS RAPIDS     CLEAR     44  41  89 NW7       29.89R
MARSHFIELD     PTCLDY    44  40  85 NW8       29.88R
RICE LAKE      CLEAR     42  39  91 W5        29.94R
$$

...NORTHEAST IOWA...


CITY           SKY/WX    TMP DP  RH WIND       PRES   REMARKS
DECORAH        CLEAR     45  41  87 VRB3      29.94R
MASON CITY     CLEAR     40  38  93 NW7       30.00R
CHARLES CITY   CLEAR     41  39  93 NW5       29.98R
OELWEIN        CLEAR     43  41  93 NW9       29.96R
$$

...ELSEWHERE IN IOWA...


CITY           SKY/WX    TMP DP  RH WIND       PRES   REMARKS
DES MOINES     CLEAR     47  41  80 NW9       30.02R
IOWA CITY      CLEAR     47  43  86 NW7       29.96R
FORT DODGE     CLEAR     37  36  93 CALM      30.03R
$$

...NORTHERN ILLINOIS...


CITY           SKY/WX    TMP DP  RH WIND       PRES   REMARKS
CHICAGO-OHARE  PTCLDY    47  43  86 W6        29.81R
CHICAGO-MIDWAY PTCLDY    51  46  83 W6        29.82R
MOLINE         CLEAR     50  43  77 NW9       29.91R
ROCKFORD       PTCLDY    47  42  83 NW7       29.86R
PEORIA         CLEAR     51  45  79 W5        29.90R
$$

NOTE: "FAIR" INDICATES FEW OR NO CLOUDS BELOW 12,000 FEET WITH NO
SIGNIFICANT WEATHER AND/OR OBSTRUCTIONS TO VISIBILITY. WIND
SPEEDS ARE IN MILES-PER-HOUR.



USA.gov is the U.S. government's official web portal to all federal, state and local government web resources and services.